GW3991 Weather Reports


time (UTC)temp
F
wind
direction
speed
knots
gust
knots
rain 1hr
in
rain 24hr
in
rain mn
in
humidity
%
barometer
mb
20260507175013 67 232 13.0 15.6 0.00 0.00 0.00 36 1010.0
20260507174510 66 197 8.7 21.7 0.00 0.00 0.00 35 1010.1
20260507174008 67 230 11.3 18.2 0.00 0.00 0.00 36 1010.2
20260507173504 67 260 3.5 13.0 0.00 0.00 0.00 36 1010.3
20260507173002 65 206 14.8 20.0 0.00 0.00 0.00 37 1010.2
20260507172457 66 196 7.0 16.5 0.00 0.00 0.00 39 1010.5
20260507171954 66 225 11.3 20.9 0.00 0.00 0.00 37 1010.5
20260507171450 65 223 12.2 17.4 0.00 0.00 0.00 38 1010.5
20260507170947 66 281 7.8 13.9 0.00 0.00 0.00 37 1010.7
20260507170444 65 241 3.5 16.5 0.00 0.00 0.00 39 1010.8
20260507165940 65 217 20.0 20.0 0.00 0.00 0.00 38 1010.8
20260507165437 65 205 7.0 12.2 0.00 0.00 0.00 38 1010.8
20260507164932 65 219 11.3 18.2 0.00 0.00 0.00 37 1011.0
20260507164430 64 201 9.6 15.6 0.00 0.00 0.00 38 1010.9
20260507163926 64 201 11.3 13.9 0.00 0.00 0.00 39 1010.8
20260507163424 64 211 4.3 16.5 0.00 0.00 0.00 40 1010.8
20260507162921 63 211 13.0 15.6 0.00 0.00 0.00 44 1010.9
20260507162416 63 228 6.1 15.6 0.00 0.00 0.00 42 1011.2
20260507161914 63 202 13.0 16.5 0.00 0.00 0.00 43 1011.0
20260507161409 63 244 14.8 16.5 0.00 0.00 0.00 40 1011.0
20260507160906 63 230 7.8 13.0 0.00 0.00 0.00 43 1011.2
20260507160402 62 229 7.8 16.5 0.00 0.00 0.00 43 1011.2
20260507155858 62 219 11.3 18.2 0.00 0.00 0.00 42 1010.9
20260507155354 62 236 7.0 14.8 0.00 0.00 0.00 45 1011.4
20260507154851 61 228 13.9 16.5 0.00 0.00 0.00 44 1011.4
20260507154348 61 162 12.2 14.8 0.00 0.00 0.00 49 1011.4
20260507153846 60 222 10.4 13.9 0.00 0.00 0.00 49 1011.6
20260507153342 60 205 7.8 15.6 0.00 0.00 0.00 49 1011.6
20260507152838 60 210 7.0 16.5 0.00 0.00 0.00 49 1011.6
20260507152335 59 204 9.6 14.8 0.00 0.00 0.00 50 1011.8
20260507151831 58 195 8.7 14.8 0.00 0.00 0.00 53 1011.8
20260507151327 58 170 11.3 14.8 0.00 0.00 0.00 55 1011.8
20260507150824 58 222 12.2 13.0 0.00 0.00 0.00 54 1011.9
20260507150321 58 209 6.1 13.0 0.00 0.00 0.00 57 1011.9
20260507145817 57 228 9.6 13.9 0.00 0.00 0.00 57 1011.9
20260507145313 57 209 10.4 14.8 0.00 0.00 0.00 57 1012.0
20260507144811 56 233 13.0 13.9 0.00 0.00 0.00 58 1012.0
20260507144308 56 209 11.3 17.4 0.00 0.00 0.00 59 1012.4
20260507143804 56 194 4.3 10.4 0.00 0.00 0.00 61 1012.2
20260507143302 55 223 10.4 15.6 0.00 0.00 0.00 62 1012.6
20260507142758 55 203 12.2 16.5 0.00 0.00 0.00 63 1012.5
20260507142254 55 208 6.1 12.2 0.00 0.00 0.00 63 1012.7
20260507141751 55 249 8.7 13.0 0.00 0.00 0.00 64 1012.8
20260507141248 54 198 6.1 13.9 0.00 0.00 0.00 66 1012.7
20260507140744 53 216 7.8 15.6 0.00 0.00 0.00 66 1012.8
20260507140242 53 219 10.4 15.6 0.00 0.00 0.00 67 1012.8
20260507135739 52 219 12.2 16.5 0.00 0.00 0.00 67 1012.7
20260507135236 52 192 7.0 13.0 0.00 0.00 0.00 70 1012.8
20260507134732 52 223 9.6 13.0 0.00 0.00 0.00 70 1012.7
20260507134228 51 219 9.6 14.8 0.00 0.00 0.00 71 1012.9
20260507133724 51 226 14.8 17.4 0.00 0.00 0.00 71 1012.9
20260507133221 51 243 11.3 13.0 0.00 0.00 0.00 73 1013.1
20260507132719 50 212 7.0 14.8 0.00 0.00 0.00 74 1012.8
20260507132215 50 201 12.2 13.0 0.00 0.00 0.00 75 1013.0
20260507131712 50 220 9.6 12.2 0.00 0.00 0.00 76 1013.0
20260507131210 49 217 10.4 13.9 0.00 0.00 0.00 77 1013.0
20260507130706 49 220 7.8 13.0 0.00 0.00 0.00 79 1013.1
20260507130204 49 227 9.6 10.4 0.00 0.00 0.00 78 1013.0
20260507125703 48 208 10.4 14.8 0.00 0.00 0.00 79 1013.1
20260507125200 48 212 11.3 13.0 0.00 0.00 0.00 79 1013.1
20260507124656 47 203 7.8 11.3 0.00 0.00 0.00 81 1013.1
20260507124153 47 219 8.7 11.3 0.00 0.00 0.00 81 1013.0
20260507123652 47 213 7.0 11.3 0.00 0.00 0.00 81 1013.1
20260507123149 47 206 7.8 12.2 0.00 0.00 0.00 82 1013.1
20260507122643 47 201 4.3 13.0 0.00 0.00 0.00 83 1013.1
20260507122139 46 223 11.3 13.0 0.00 0.00 0.00 82 1013.0
20260507121636 46 202 7.0 9.6 0.00 0.00 0.00 84 1013.1
20260507121132 46 206 11.3 13.0 0.00 0.00 0.00 83 1013.0
20260507120628 46 196 8.7 13.0 0.00 0.00 0.00 83 1013.0
20260507120125 46 220 6.1 9.6 0.00 0.00 0.00 85 1013.3
20260507115621 46 204 7.8 10.4 0.00 0.00 0.00 84 1013.2
20260507115117 45 202 7.0 9.6 0.00 0.00 0.00 84 1013.1
20260507114613 45 218 7.8 10.4 0.00 0.00 0.00 84 1013.3
20260507114110 45 195 7.8 9.6 0.00 0.00 0.00 83 1013.3
20260507113608 45 228 7.8 9.6 0.00 0.00 0.00 83 1013.1
20260507113105 45 215 7.8 10.4 0.00 0.00 0.00 83 1013.1
20260507112603 45 221 7.8 9.6 0.00 0.00 0.00 83 1013.2
20260507112059 45 204 7.8 8.7 0.00 0.00 0.00 83 1013.3
20260507111556 45 209 5.2 10.4 0.00 0.00 0.00 82 1013.2
20260507111052 46 198 6.1 11.3 0.00 0.00 0.00 85 1013.1
20260507110549 45 201 7.8 10.4 0.00 0.00 0.00 83 1013.0
20260507110046 45 211 7.8 10.4 0.00 0.00 0.00 83 1013.0
20260507105543 45 203 7.0 10.4 0.00 0.00 0.00 83 1013.2
20260507105039 45 204 7.0 10.4 0.00 0.00 0.00 82 1013.2
20260507104536 46 207 7.0 13.0 0.00 0.00 0.00 82 1013.3
20260507104032 46 206 7.0 10.4 0.00 0.00 0.00 81 1013.2
20260507103529 46 224 5.2 9.6 0.00 0.00 0.00 82 1013.1
20260507103025 46 218 8.7 10.4 0.00 0.00 0.00 81 1012.9
20260507102522 46 202 6.1 11.3 0.00 0.00 0.00 82 1013.2
20260507102018 46 204 7.0 12.2 0.00 0.00 0.00 80 1013.1
20260507101514 46 199 9.6 11.3 0.00 0.00 0.00 80 1013.1
20260507101010 47 212 7.8 11.3 0.00 0.00 0.00 80 1013.2
20260507100508 46 205 8.7 10.4 0.00 0.00 0.00 80 1013.1
20260507100006 47 205 10.4 11.3 0.00 0.00 0.00 79 1013.0
20260507095503 47 209 7.0 10.4 0.00 0.00 0.00 80 1013.3
20260507095000 47 210 7.0 12.2 0.00 0.00 0.00 79 1013.2
20260507094456 47 194 7.0 9.6 0.00 0.00 0.00 80 1013.2
20260507093953 47 205 5.2 10.4 0.00 0.00 0.00 79 1013.2
20260507093450 47 196 5.2 10.4 0.00 0.00 0.00 80 1013.3
20260507092949 47 221 6.1 9.6 0.00 0.00 0.00 79 1013.4
20260507092445 47 207 5.2 7.8 0.00 0.00 0.00 80 1013.3
20260507091941 47 203 5.2 8.7 0.00 0.00 0.00 79 1013.5
20260507091438 47 213 7.0 9.6 0.00 0.00 0.00 78 1013.5
20260507090933 47 206 7.0 8.7 0.00 0.00 0.00 77 1013.5
20260507090430 47 216 6.1 7.8 0.00 0.00 0.00 77 1013.7
20260507085926 47 208 6.1 7.8 0.00 0.00 0.00 78 1013.7
20260507085424 47 210 7.8 8.7 0.00 0.00 0.00 76 1013.8
20260507084921 47 198 5.2 8.7 0.00 0.00 0.00 79 1013.8
20260507084418 47 213 7.8 10.4 0.00 0.00 0.00 76 1014.0
20260507083915 47 204 7.0 9.6 0.00 0.00 0.00 75 1014.1
20260507083411 47 212 8.7 8.7 0.00 0.00 0.00 75 1014.0
20260507082907 47 213 6.1 7.8 0.00 0.00 0.00 75 1014.0
20260507082403 47 217 5.2 7.8 0.00 0.00 0.00 74 1014.0
20260507081900 46 207 5.2 7.0 0.00 0.00 0.00 75 1014.4
20260507081356 46 211 5.2 8.7 0.00 0.00 0.00 74 1014.1
20260507080853 46 204 4.3 7.0 0.00 0.00 0.00 75 1014.4
20260507080349 46 211 5.2 7.8 0.00 0.00 0.00 73 1014.1
20260507075844 46 203 5.2 7.0 0.00 0.00 0.00 72 1014.7
20260507075341 46 202 4.3 5.2 0.00 0.00 0.00 72 1014.7
20260507074837 46 208 2.6 5.2 0.00 0.00 0.00 71 1014.7
20260507074335 46 227 5.2 5.2 0.00 0.00 0.00 71 1014.8
20260507073832 46 203 3.5 4.3 0.00 0.00 0.00 70 1014.7
20260507073329 46 226 3.5 5.2 0.00 0.00 0.00 70 1014.8
20260507072826 46 219 1.7 5.2 0.00 0.00 0.00 71 1014.8
20260507072323 46 211 4.3 5.2 0.00 0.00 0.00 68 1014.9
20260507071820 46 219 4.3 5.2 0.00 0.00 0.00 68 1014.8
20260507071317 46 197 3.5 5.2 0.00 0.00 0.00 67 1015.0
20260507070814 47 223 3.5 4.3 0.00 0.00 0.00 69 1015.1
20260507070311 47 194 1.7 4.3 0.00 0.00 0.00 66 1015.1
20260507065808 47 201 2.6 5.2 0.00 0.00 0.00 63 1015.3
20260507065306 47 198 3.5 5.2 0.00 0.00 0.00 63 1015.3
20260507064801 47 211 2.6 5.2 0.00 0.00 0.00 62 1015.1
20260507064300 47 206 6.1 6.1 0.00 0.00 0.00 61 1015.3
20260507063758 48 202 3.5 5.2 0.00 0.00 0.00 62 1015.3
20260507063254 48 214 5.2 6.1 0.00 0.00 0.00 64 1015.4
20260507062751 48 211 4.3 5.2 0.00 0.00 0.00 62 1015.5
20260507062248 47 223 3.5 5.2 0.00 0.00 0.00 60 1015.5
20260507061746 48 208 3.5 5.2 0.00 0.00 0.00 60 1015.6
20260507061244 48 197 5.2 5.2 0.00 0.00 0.00 59 1015.6
20260507060742 48 202 3.5 5.2 0.00 0.00 0.00 57 1015.8
20260507060238 48 201 3.5 5.2 0.00 0.00 0.00 60 1015.8
20260507055734 48 219 3.5 6.1 0.00 0.00 0.00 59 1015.6
20260507055230 48 192 0.9 4.3 0.00 0.00 0.00 57 1015.7
20260507054726 48 200 1.7 4.3 0.00 0.00 0.00 55 1015.8
20260507054224 48 207 2.6 4.3 0.00 0.00 0.00 54 1015.7
20260507053721 48 211 2.6 3.5 0.00 0.00 0.00 53 1015.8
20260507053219 49 223 2.6 5.2 0.00 0.00 0.00 53 1015.6
20260507052717 49 207 3.5 4.3 0.00 0.00 0.00 51 1015.4
20260507052208 49 206 2.6 5.2 0.00 0.00 0.00 51 1015.5
20260507051706 49 226 2.6 4.3 0.00 0.00 0.00 52 1015.5
20260507051202 48 255 0.9 4.3 0.00 0.00 0.00 55 1015.6
20260507050659 48 201 1.7 6.1 0.00 0.00 0.00 52 1015.5
20260507050156 49 208 3.5 7.0 0.00 0.00 0.00 50 1015.8
20260507045652 49 210 6.1 7.0 0.00 0.00 0.00 51 1015.8
20260507045149 49 203 2.6 5.2 0.00 0.00 0.00 54 1015.9
20260507044646 49 217 3.5 7.0 0.00 0.00 0.00 51 1015.6
20260507044142 50 204 5.2 7.0 0.00 0.00 0.00 49 1015.9
20260507043638 50 203 6.1 8.7 0.00 0.00 0.00 47 1015.8
20260507043136 50 202 5.2 9.6 0.00 0.00 0.00 47 1015.7
20260507042632 50 204 3.5 4.3 0.00 0.00 0.00 47 1015.9
20260507042121 51 199 3.5 5.2 0.00 0.00 0.00 47 1015.9
20260507041619 51 208 2.6 4.3 0.00 0.00 0.00 50 1015.9
20260507041115 51 209 2.6 5.2 0.00 0.00 0.00 49 1016.1
20260507040613 50 161 1.7 3.5 0.00 0.00 0.00 49 1016.0
20260507040109 50 136 2.6 3.5 0.00 0.00 0.00 46 1016.0
20260507035605 50 138 2.6 3.5 0.00 0.00 0.00 46 1015.9
20260507035101 51 134 1.7 3.5 0.00 0.00 0.00 47 1016.1
20260507034558 51 133 3.5 3.5 0.00 0.00 0.00 46 1016.0
20260507034056 51 129 2.6 2.6 0.00 0.00 0.00 46 1016.2
20260507033554 51 127 1.7 2.6 0.00 0.00 0.00 45 1016.1
20260507033051 51 135 2.6 3.5 0.00 0.00 0.00 45 1016.3
20260507032548 51 120 0.9 2.6 0.00 0.00 0.00 45 1016.2
20260507032044 51 123 1.7 2.6 0.00 0.00 0.00 47 1016.4
20260507031540 51 137 2.6 2.6 0.00 0.00 0.00 48 1016.4
20260507031037 51 134 1.7 2.6 0.00 0.00 0.00 51 1016.4
20260507030534 52 122 1.7 2.6 0.00 0.00 0.00 50 1016.4
20260507030032 52 149 1.7 2.6 0.00 0.00 0.00 47 1016.2
20260507025529 52 134 1.7 2.6 0.00 0.00 0.00 47 1016.4
20260507025026 52 138 1.7 2.6 0.00 0.00 0.00 47 1016.2
20260507024524 52 115 1.7 1.7 0.00 0.00 0.00 42 1016.3
20260507024020 52 129 1.7 2.6 0.00 0.00 0.00 42 1016.4
20260507023516 53 124 2.6 2.6 0.00 0.00 0.00 44 1016.3
20260507023014 53 134 3.5 4.3 0.00 0.00 0.00 46 1016.2
20260507022510 53 138 3.5 5.2 0.00 0.00 0.00 45 1016.1
20260507022005 53 141 1.7 1.7 0.00 0.00 0.00 43 1016.0
20260507021501 54 139 1.7 2.6 0.00 0.00 0.00 44 1016.2
20260507020958 54 115 1.7 1.7 0.00 0.00 0.00 44 1016.0
20260507020455 54 117 1.7 1.7 0.00 0.00 0.00 45 1015.9
20260507015952 54 111 0.9 2.6 0.00 0.00 0.00 44 1016.1
20260507015451 54 112 0.9 1.7 0.00 0.00 0.00 43 1015.9
20260507014947 55 124 1.7 2.6 0.00 0.00 0.00 39 1016.1
20260507014444 55 102 1.7 2.6 0.00 0.00 0.00 39 1016.0
20260507013940 55 86 1.7 1.7 0.00 0.00 0.00 38 1015.9
20260507013437 55 110 2.6 2.6 0.00 0.00 0.00 38 1015.8
20260507012935 56 61 0.9 2.6 0.00 0.00 0.00 37 1015.8
20260507012431 57 306 1.7 2.6 0.00 0.00 0.00 36 1016.0
20260507011928 57 330 1.7 2.6 0.00 0.00 0.00 35 1016.2
20260507011425 57 301 1.7 2.6 0.00 0.00 0.00 39 1016.1
20260507010920 58 209 1.7 2.6 0.00 0.00 0.00 33 1016.1
20260507010415 59 305 1.7 2.6 0.00 0.00 0.00 31 1015.9
20260507005913 59 215 1.7 2.6 0.00 0.00 0.00 33 1016.0
20260507005410 59 273 1.7 3.5 0.00 0.00 0.00 33 1016.2
20260507004906 59 261 1.7 4.3 0.00 0.00 0.00 32 1016.1
20260507004402 60 276 1.7 3.5 0.00 0.00 0.00 32 1016.1
20260507003901 60 293 2.6 4.3 0.00 0.00 0.00 34 1015.9
20260507003355 60 263 5.2 5.2 0.00 0.00 0.00 28 1015.9
20260507002851 60 291 3.5 7.8 0.00 0.00 0.00 32 1016.2
20260507002347 61 246 3.5 6.1 0.00 0.00 0.00 31 1016.2
20260507001844 61 255 4.3 6.1 0.00 0.00 0.00 30 1016.0
20260507001341 60 287 5.2 7.0 0.00 0.00 0.00 31 1016.3
20260507000838 60 273 3.5 6.1 0.00 0.00 0.00 30 1016.1
20260507000335 60 309 6.1 7.8 0.00 0.00 0.00 31 1016.3
20260506235830 60 330 6.1 7.0 0.00 0.00 0.00 31 1016.0
20260506235327 60 331 5.2 7.0 0.00 0.00 0.00 31 1016.3
20260506234823 60 346 2.6 10.4 0.00 0.00 0.00 33 1016.2
20260506234321 60 345 3.5 7.8 0.00 0.00 0.00 29 1016.4
20260506233818 60 314 7.8 8.7 0.00 0.00 0.00 30 1016.6
20260506233314 60 334 5.2 7.8 0.00 0.00 0.00 33 1016.5
20260506232811 60 291 1.7 8.7 0.00 0.00 0.00 31 1016.7
20260506232306 59 312 5.2 8.7 0.00 0.00 0.00 32 1016.5
20260506231803 59 2 4.3 9.6 0.00 0.00 0.00 30 1016.5
20260506231301 59 320 12.2 12.2 0.00 0.00 0.00 34 1016.7
20260506230758 59 311 6.1 9.6 0.00 0.00 0.00 31 1016.4
20260506230255 59 298 6.1 11.3 0.00 0.00 0.00 34 1016.6
20260506225751 60 313 5.2 11.3 0.00 0.00 0.00 29 1016.7
20260506225249 59 302 2.6 11.3 0.00 0.00 0.00 32 1016.6
20260506224744 59 311 7.8 11.3 0.00 0.00 0.00 33 1016.6
20260506224242 59 343 9.6 14.8 0.00 0.00 0.00 29 1016.8
20260506223732 59 296 9.6 13.0 0.00 0.00 0.00 29 1016.7
20260506223227 59 325 8.7 13.9 0.00 0.00 0.00 28 1016.9
20260506222725 59 332 9.6 16.5 0.00 0.00 0.00 37 1016.8
20260506222220 59 322 11.3 20.9 0.00 0.00 0.00 34 1016.7
20260506221718 59 309 3.5 9.6 0.00 0.00 0.00 28 1016.8
20260506221216 60 340 8.7 13.9 0.00 0.00 0.00 30 1016.8
20260506220713 59 305 14.8 15.6 0.00 0.00 0.00 29 1017.1
20260506220208 59 335 11.3 18.2 0.00 0.00 0.00 30 1017.0
20260506215705 59 319 15.6 16.5 0.00 0.00 0.00 31 1017.0
20260506215200 60 299 6.1 13.0 0.00 0.00 0.00 33 1016.9
20260506214657 59 330 9.6 15.6 0.00 0.00 0.00 35 1017.1
20260506214154 59 325 13.9 18.2 0.00 0.00 0.00 30 1017.0
20260506213653 59 329 8.7 13.9 0.00 0.00 0.00 31 1016.9
20260506213150 59 314 10.4 13.9 0.00 0.00 0.00 30 1017.1
20260506212647 59 285 7.0 7.8 0.00 0.00 0.00 29 1017.2
20260506212141 59 323 7.8 13.0 0.00 0.00 0.00 35 1017.2
20260506211638 59 305 8.7 13.0 0.00 0.00 0.00 35 1017.7
20260506211134 59 302 4.3 9.6 0.00 0.00 0.00 33 1017.5
20260506210631 60 259 8.7 16.5 0.00 0.00 0.00 31 1017.3
20260506210128 60 272 6.1 12.2 0.00 0.00 0.00 27 1017.5
20260506205625 58 331 5.2 9.6 0.00 0.00 0.00 33 1017.4
20260506205120 59 305 18.2 19.1 0.00 0.00 0.00 31 1017.8
20260506204619 58 337 7.0 18.2 0.00 0.00 0.00 36 1017.8
20260506204115 59 313 13.9 19.1 0.00 0.00 0.00 33 1017.8
20260506203613 58 315 5.2 14.8 0.00 0.00 0.00 30 1018.1
20260506203110 57 336 4.3 13.0 0.00 0.00 0.00 33 1018.2
20260506202608 57 306 10.4 15.6 0.00 0.00 0.00 29 1018.3
20260506202104 59 228 12.2 17.4 0.00 0.00 0.00 30 1018.0
20260506201601 58 301 10.4 12.2 0.00 0.00 0.00 30 1018.0
20260506201058 58 318 9.6 12.2 0.00 0.00 0.00 30 1018.1
20260506200554 58 304 7.0 12.2 0.00 0.00 0.00 34 1018.3
20260506200051 58 322 7.0 13.0 0.00 0.00 0.00 32 1018.5
20260506195547 58 291 4.3 8.7 0.00 0.00 0.00 29 1018.4
20260506195043 57 348 4.3 11.3 0.00 0.00 0.00 31 1018.5
20260506194541 56 345 8.7 19.1 0.00 0.00 0.00 31 1018.6
20260506194037 57 311 5.2 8.7 0.00 0.00 0.00 37 1018.4
20260506193535 56 295 13.0 14.8 0.00 0.00 0.00 32 1018.5
20260506193032 56 299 13.9 19.1 0.00 0.00 0.00 33 1018.4
20260506192529 56 343 7.0 12.2 0.00 0.00 0.00 33 1018.4
20260506192024 56 341 7.8 10.4 0.00 0.00 0.00 33 1018.7
20260506191521 56 340 9.6 12.2 0.00 0.00 0.00 35 1018.6
20260506191018 56 316 7.8 7.8 0.00 0.00 0.00 37 1018.7
20260506190515 56 341 7.0 13.0 0.00 0.00 0.00 36 1018.9
20260506190012 56 272 2.6 16.5 0.00 0.00 0.00 33 1018.7
20260506185509 56 23 6.1 10.4 0.00 0.00 0.00 36 1018.6
20260506185006 56 332 4.3 11.3 0.00 0.00 0.00 35 1018.8
20260506184503 55 319 9.6 14.8 0.00 0.00 0.00 36 1018.9
20260506184000 55 339 6.1 10.4 0.00 0.00 0.00 33 1019.1
20260506183455 55 274 6.1 15.6 0.00 0.00 0.00 37 1019.0
20260506182952 55 339 7.0 7.8 0.00 0.00 0.00 38 1018.8
20260506182449 55 343 9.6 13.9 0.00 0.00 0.00 35 1018.9
20260506181947 55 312 7.8 9.6 0.00 0.00 0.00 37 1019.0
20260506181445 55 345 7.8 10.4 0.00 0.00 0.00 39 1019.2
20260506180941 54 316 13.9 17.4 0.00 0.00 0.00 37 1019.4
20260506180437 54 335 10.4 16.5 0.00 0.00 0.00 40 1019.5
20260506175929 55 322 5.2 14.8 0.00 0.00 0.00 42 1019.3
20260506175426 55 326 8.7 13.9 0.00 0.00 0.00 34 1019.4